www.pogodaiklimat.ru

Погода и климат >> Архив погоды >> Таиланд >> Накхон Саван


ПОГОДА в Накхон Саван

  • Прогноз погоды в Накхон Саван
  • Монитор погоды в Накхон Саван

АРХИВ ПОГОДЫ в Накхон Саван

Время (UTC), дата Ветер
(напр.,м/с)
 
Видим.   Явления Облачность Т
(С)
Тd
(С)
f
(%)
Тe
(С)
Тes
(С)
Комфортность P
(гПа)
Po
(гПа)
Тmin
(С)
Tmax
(С)
R
(мм)
R24
(мм)
S
(см)
15 14.05 штиль 0 9000 м дымка 8/4 300 м
[Cu Sc As op Cs]
+25.5 +23.1 87 +34 +34 очень
душно
1008.4 1004.3
18 14.05 ЮВ 1 9000 м дымка 8/3 600 м
[Sc Ac trans Cs]
+25.5 +23.9 91 +35 +35 очень
душно
1008.1 1004.1
21 14.05 ЮВ 2 9000 м дымка 3/0
[Cs]
+25.1 +23.8 93 +34 +34 очень
душно
1007.8 1003.8
00 15.05 штиль 0 9000 м дымка 9/5 600 м
[Sc Ac trans Cs]
+25.6 +23.8 90 +35 +36 очень
душно
1008.9 1004.9 +24.6
03 15.05 штиль 0 12 км 4/3 600 м
[Sc Ac lent Cs]
+31.4 +25.2 70 +45 +59 опасность
перегрева
1009.3 1005.3
06 15.05 штиль 0 12 км 6/3 600 м
[Sc Ac trans Cs]
+35.5 +24.2 52 +47 +63 опасность
перегрева
1007.3 1003.4
09 15.05 штиль 0 11 км 9/5 600 м
[Cu Sc Ac lent Cs]
+35.5 +26.5 60 +52 +56 опасность
перегрева
1004.2 1000.2
12 15.05 штиль 0 8000 м дымка {гроза, дождь} 10/6 600 м
[Sc Ac As Cs]
+25.0 +24.3 96 +35 +35 очень
душно
1006.2 1002.2 +36.8 65
15 15.05 штиль 0 8000 м дымка {дождь} 9/5 600 м
[Sc Ac trans Cs]
+26.0 +25.3 96 +38 +38 очень
душно
1008.6 1004.6 0.4
18 15.05 штиль 0 8000 м дымка {дождь} 4/1 600 м
[Sc Ac lent Cs]
+26.3 +25.1 93 +38 +38 очень
душно
1007.5 1003.4 65
21 15.05 штиль 0 8000 м дымка 3/0
[Cs]
+26.0 +25.3 96 +38 +38 очень
душно
1006.8 1002.7
00 16.05 штиль 0 8000 м дымка 3/0
[Cs]
+26.0 +25.3 96 +38 +39 очень
душно
1008.3 1004.2 +24.7 65
03 16.05 ЮЗ 2 10 км 1/1 600 м
[Cu hum Ci fib]
+31.2 +24.8 69 +44 +58 опасность
перегрева
1009.7 1005.7
06 16.05 ЮВ 3 10 км 6/5 600 м
[Cu med, cong Cs]
+34.0 +25.1 60 +48 +57 опасность
перегрева
1007.8 1003.8
09 16.05 ЮВ 3 10 км 10/4 600 м
[Cb cap Ac trans Ci ing]
+32.3 +25.9 69 +48 +50 опасность
перегрева
1005.0 1001.0
12 16.05 Ю 2 10 км 10/4 600 м
[Sc Ac trans Cs]
+31.4 +25.8 72 +46 +46 опасность
перегрева
1006.0 1002.1 +35.7
15 16.05 Ю 5 10 км 10/5 600 м
[Sc Ac trans Cs]
+30.2 +25.7 77 +45 +45 опасность
перегрева
1007.9 1003.9
18 16.05 Ю 5 10 км 3/0
[Cs]
+28.8 +25.1 80 +42 +42 опасность
перегрева
1006.9 1002.9
21 16.05 Ю 3 10 км 3/0
[Cs]
+27.7 +24.7 84 +39 +39 очень
душно
1006.2 1002.1
00 17.05 ЮВ 2 10 км 10/0
[Cs]
+27.1 +25.2 89 +39 +40 очень
душно
1007.4 1003.4 +26.4
03 17.05 СВ 1 10 км 3/0
[Cs]
+32.5 +23.7 60 +44 +61 опасность
перегрева
1008.2 1004.3
06 17.05 штиль 0 10 км 3/3 600 м
[Cu med, cong Cs]
+36.5 +24.2 49 +48 +68 опасность
перегрева
1006.4 1002.5
09 17.05 З 2 10 км 4/3 600 м
[Cu Sc Ac lent Cs]
+37.8 +23.9 45 +49 +54 опасность
перегрева
1003.4 999.5
12 17.05 ЮЗ 2 10 км 8/5 600 м
[Cu Sc Ac lent Cs]
+34.6 +23.7 53 +46 +46 опасность
перегрева
1004.1 1000.1 +38.2
15 17.05 З 3 10 км 3/1 600 м
[Sc Cs]
+32.6 +26.0 68 +48 +48 опасность
перегрева
1005.7 1001.8
18 17.05 Ю 4 10 км 3/0
[Cs]
+30.9 +24.3 68 +43 +43 опасность
перегрева
1005.1 1001.1
21 17.05 ЮВ 1 10 км 3/0
[Cs]
+28.6 +25.2 82 +42 +42 опасность
перегрева
1004.7 1000.7
00 18.05 ЮВ 4 10 км 3/0
[Cs]
+27.8 +25.1 85 +40 +41 очень
душно
1006.7 1002.7 +27.2
03 18.05 штиль 0 12 км ясно +33.0 +24.5 61 +46 +67 опасность
перегрева
1007.7 1003.7
06 18.05 штиль 0 12 км 3/3 600 м
[Sc]
+37.0 +23.5 46 +47 +68 опасность
перегрева
1005.3 1001.4
09 18.05 штиль 0 12 км 1/1 600 м
[Sc]
+38.2 +23.7 44 +49 +59 опасность
перегрева
1002.6 998.8
12 18.05 штиль 0 10 км 1/0
[Cs]
+35.7 +25.0 54 +49 +49 опасность
перегрева
1002.6 998.7 +39.0
15 18.05 Ю 4 10 км 1/0
[Cs]
+33.3 +24.3 59 +45 +45 опасность
перегрева
1005.5 1001.5
18 18.05 Ю 4 10 км 1/0
[Cs]
+31.0 +24.4 68 +43 +43 опасность
перегрева
1005.1 1001.1
21 18.05 штиль 0 10 км 1/0
[Cs]
+29.0 +24.7 78 +41 +41 опасность
перегрева
1004.6 1000.6
00 19.05 штиль 0 10 км 3/0
[Cs]
+28.0 +24.7 82 +40 +42 очень
душно
1006.1 1002.1 +27.7
03 19.05 СЗ 3 10 км 1/0
[Ci fib]
+33.8 +24.0 57 +46 +58 опасность
перегрева
1008.8 1004.8
06 19.05 СВ 2 12 км 1/1 600 м
[Cu hum Ci fib]
+37.0 +24.0 47 +48 +67 опасность
перегрева
1006.7 1002.8
09 19.05 штиль 0 12 км 1/1 600 м
[Cb cap Ci ing]
+38.8 +24.1 43 +50 +60 опасность
перегрева
1004.1 1000.2
12 19.05 штиль 0 10 км 3/1 600 м
[Cb cap Ci ing]
+35.7 +25.7 56 +50 +50 опасность
перегрева
1004.2 1000.3 +39.0
15 19.05 Ю 5 10 км 1/0
[Ci fib]
+34.2 +23.1 52 +44 +44 опасность
перегрева
1006.9 1003.0
18 19.05 Ю 6 10 км 1/0
[Cs]
+32.0 +25.2 67 +46 +46 опасность
перегрева
1006.6 1002.7
21 19.05 ЮВ 5 10 км 1/0
[Cs]
+29.8 +25.3 77 +44 +44 опасность
перегрева
1006.1 1002.1
00 20.05 Ю 3 10 км 1/0
[Cs]
+29.3 +25.8 81 +43 +45 опасность
перегрева
1007.5 1003.5 +28.6
03 20.05 штиль 0 12 км ясно +34.0 +25.6 62 +49 +70 опасность
перегрева
1008.4 1004.5
06 20.05 штиль 0 12 км 1/1 600 м
[Cu hum]
+38.0 +26.3 52 +54 +80 опасность
перегрева
1006.4 1002.5
09 20.05 штиль 0 5000 м гроза, ливневой дождь 10/8 600 м
[Cb cap Ac As Ci ing]
+30.3 +27.1 83 +48 +49 опасность
перегрева
1003.4 999.4 18
12 20.05 штиль 0 8000 м мгла {гроза} 3/0
[Cs]
+34.5 +25.5 60 +49 +49 опасность
перегрева
1003.6 999.7 +40.1 18
15 20.05 Ю 4 10 км 6/0
[Cs]
+33.1 +26.0 66 +49 +49 опасность
перегрева
1006.7 1002.8
18 20.05 ЮЗ 3 10 км 3/0
[Cs]
+30.7 +25.8 75 +46 +46 опасность
перегрева
1006.2 1002.2
21 20.05 штиль 0 10 км 3/0
[Cs]
+29.0 +24.7 78 +41 +41 опасность
перегрева
1006.3 1002.2
00 21.05 штиль 0 10 км 6/0
[Ac lent Cs]
+28.2 +25.1 83 +41 +42 опасность
перегрева
1007.0 1003.0 +27.7 18
03 21.05 штиль 0 10 км 1/0
[Cs]
+33.6 +26.1 65 +50 +70 опасность
перегрева
1008.6 1004.7
06 21.05 В 4 10 км 3/3 600 м
[Cu Sc Cs]
+36.3 +26.0 56 +52 +62 опасность
перегрева
1006.9 1003.0
09 21.05 В 2 10 км 6/3 600 м
[Cu Sc Ac lent Cs]
+37.7 +26.6 53 +54 +59 опасность
перегрева
1003.5 999.6
12 21.05 ЮВ 2 10 км 10/3 300 м
[Frnb As op Cs]
+35.2 +25.7 58 +50 +50 опасность
перегрева
1004.4 1000.5 +38.1

 

Местоположение метеостанции Накхон Саван (Таиланд): широта 15.80 долгота 100.16 высота над уровнем моря 35 м.

В архиве по умолчанию представлена погода в Накхон Саван за последнюю неделю. Архивные данные за месяц целиком и за предыдущие месяцы, начиная с января 2011 года, Вы можете получить, выбрав интересующий диапазон дат из раскрывающегося списка и нажав кнопку "Ввод!".


*Определитесь, кто Вы:
робот инопланетянин человек

Внимание! Время в таблицах - всемирное. Для получения местного времени необходимо прибавить поправку, которая равна 7 ч.

Смотрите также архив погоды в соседних городах и на ближайших метеорологических станциях:

Погода в Утай Тани (Таиланд) (48 км)
Погода в Такфа Агромете (Таиланд) (62 км)
Погода в Пичит Агромете (Таиланд) (71 км)
Погода в Чайнат Агромете (Таиланд) (72 км)
Погода в Кампхэнгпхете (Таиланд) (101 км)
Погода в Вичан Бури (Таиланд) (103 км)
Погода в Пхитсанулоке (Таиланд) (110 км)
Погода в Лаем-Чабанге (Таиланд) (111 км)
Погода в Лопбури (Таиланд) (121 км)
Погода в Буа Чум (Таиланд) (124 км)

Пояснения к столбцам:

Ветер - указаны скорость ветра в м/с - средняя за 10 мин, порывы в срок и между сроками (в фигурных скобках) и направление, откуда дует ветер: С - северный, СВ - северо-восточный, В - восточный, ЮВ - юго-восточный, Ю - южный, ЮЗ - юго-западный, З - западный, СЗ - северо-западный.
Видимость - горизонтальная дальность видимости в метрах или километрах. При видимости от 1 до 10 км при отсутствии осадков обычно наблюдается дымка, при ухудшении видимости до 1 км и менее - туман. В сухую погоду видимость может ухудшаться дымом, пылью или мглою.
Явления - указаны атмосферные явления, наблюдавшиеся в срок или в последний час перед сроком; фигурными скобками обозначены явления, наблюдавшиеся между сроками (за 1-3 часа до срока); квадратными скобками обозначены град или гололедные отложения с указанием их диаметра в мм.
Облачность - указаны через наклонную черту общая и нижняя облачность в баллах и высота нижней границы облаков в метрах; квадратными скобками обозначены формы облаков: Ci - перистые, Cs - перисто-слоистые, Cc - перисто-кучевые, Ac - высококучевые, As - высокослоистые, Sc - слоисто-кучевые, Ns - слоисто-дождевые, Cu - кучевые, Cb - кучево-дождевые. Подробнее классификацию облаков см. в Атласе облаков (PDF).
T - Температура воздуха - температура, измеренная на высоте 2 м над землей.
Td - Температура точки росы - температура, при понижении до которой содержащийся в воздухе водяной пар достигнет насыщения.
f - Относительная влажность воздуха - влажноcть воздуха, измеренная на высоте 2 м над землей.
Te - Эффективная температура - температура, которую ощущает одетый по сезону человек в тени. Характеристика душности погоды. При расчете учитывается влияние влажности воздуха и скорости ветра на теплоощущения человека.
Tes - Эффективная температура на солнце - температура, которую ощущает человек, с поправкой на солнечный нагрев. Характеристика знойности погоды. Зависит от высоты солнца над горизонтом, облачности и скорости ветра. Ночью, в пасмурную погоду, а также при ветре 12 м/с и более поправка равна нулю.
P - Атмосферное давление - приведенное к уровню моря атмосферное давление.
Po - Атмосферное давление - измеренное на уровне метеостанции атмосферное давление.
Tmin - Минимальная температура - минимум температуры воздуха на высоте 2 м над землей.
Tmax - Максимальная температура - максимум температуры воздуха на высоте 2 м над землей.
R - Количество осадков - Количество выпавших осадков за период времени, мм. При наведении курсора мыши на число - период времени, за который выпало указанное количество осадков.
R24 - Количество осадков - Количество выпавших осадков за 24 часа, мм.
S - Снежный покров - Высота снежного покрова, см. При наведении курсора мыши на число - состояние снежного покрова и степень покрытия местности в баллах.